Yankton, SD

8:51 PM CST on December 13, 2019 (GMT -0600)
Gurney Municipal

Weather History for KYKN - October, 2019

Change the Weather History Date:

Thursday, October 3, 2019

  Actual Average Record
Temperature  
Mean Temperature 44 °F -  
Max Temperature 51 °F 71 °F 93 °F (1953)
Min Temperature 39 °F 42 °F 27 °F (1950)
Degree Days  
Heating Degree Days 20    
Moisture  
Dew Point 40 °F    
Average Humidity 86    
Maximum Humidity 100    
Minimum Humidity 71    
Precipitation  
Precipitation 0.00 in - - ()
Sea Level Pressure  
Sea Level Pressure 30.32 in    
Wind  
Wind Speed 11 mph (NW)    
Max Wind Speed 18 mph    
Max Gust Speed 21 mph    
Visibility 10 miles    
Events      
Averages and records for this station are not official NWS values.
T = Trace of Precipitation, MM = Missing Value Source: NWS Daily Summary

Daily Weather History Graph

Daily Weather History Graph

Search for Another Location

Airport or City:

Astronomy

Oct. 03, 2019 Rise Set
Actual Time 7:28 AM CDT 7:07 PM CDT
Civil Twilight 7:00 AM CDT 7:35 PM CDT
Nautical Twilight 6:27 AM CDT 8:08 PM CDT
Astronomical Twilight 5:54 AM CDT 8:41 PM CDT
Moon 1:08 PM CDT (10/3) 10:40 PM CDT (10/3)
Length of Visible Light 12h 35m
Length of Day
11h 38m
Waxing Crescent, 30% of the Moon is Illuminated
Oct 3
Waxing Crescent
Oct 5
First Quarter
Oct 13
Full
Oct 21
Last Quarter
Oct 27
New

Hourly Weather History & Observations

Time (CDT) Temp. Windchill Dew Point Humidity Pressure Visibility Wind Dir Wind Speed Gust Speed Precip Events Conditions
12:15 AM 44.6 °F 38.1 °F 42.8 °F 93% 30.14 in 10.0 mi WNW 13.8 mph - N/A   Mostly Cloudy
12:40 AM 46.4 °F 39.8 °F 42.8 °F 87% 30.15 in 10.0 mi West 16.1 mph 20.7 mph N/A   Overcast
12:56 AM 45.0 °F 38.5 °F 43.0 °F 93% 30.15 in 10.0 mi WNW 13.8 mph - N/A   Overcast
1:28 AM 44.6 °F 38.8 °F 42.8 °F 93% 30.15 in 10.0 mi WNW 11.5 mph - N/A   Overcast
1:56 AM 43.0 °F 38.2 °F 42.1 °F 97% 30.16 in 10.0 mi West 8.1 mph - N/A   Clear
2:56 AM 42.1 °F 37.1 °F 41.0 °F 96% 30.17 in 10.0 mi WNW 8.1 mph - N/A   Scattered Clouds
3:36 AM 42.8 °F 38.0 °F 39.2 °F 87% 30.19 in 10.0 mi West 8.1 mph - N/A   Mostly Cloudy
3:56 AM 43.0 °F 34.8 °F 41.0 °F 93% 30.20 in 10.0 mi NW 18.4 mph - N/A   Overcast
4:21 AM 42.8 °F 35.8 °F 39.2 °F 87% 30.21 in 10.0 mi NW 13.8 mph - N/A   Overcast
4:56 AM 42.1 °F 36.1 °F 39.9 °F 92% 30.22 in 10.0 mi NW 10.4 mph - N/A   Overcast
5:42 AM 41.0 °F 34.7 °F 39.2 °F 93% 30.23 in 10.0 mi NW 10.4 mph - N/A   Scattered Clouds
5:56 AM 41.0 °F 35.8 °F 39.0 °F 93% 30.30 in 10.0 mi WNW 8.1 mph - N/A   Clear
6:56 AM 39.0 °F 33.4 °F 37.9 °F 96% 30.33 in 10.0 mi West 8.1 mph - N/A   Clear
7:20 AM 39.2 °F 33.6 °F 39.2 °F 100% 30.27 in 10.0 mi West 8.1 mph - N/A   Mostly Cloudy
7:56 AM 42.1 °F 34.5 °F 37.9 °F 85% 30.34 in 10.0 mi WNW 15.0 mph - N/A   Overcast
8:56 AM 41.0 °F 33.5 °F 37.9 °F 89% 30.36 in 10.0 mi NW 13.8 mph - N/A   Overcast
9:56 AM 42.1 °F 35.2 °F 37.9 °F 85% 30.38 in 10.0 mi NW 12.7 mph - N/A   Overcast
10:47 AM 42.8 °F 36.2 °F 37.4 °F 81% 30.34 in 10.0 mi NW 12.7 mph - N/A   Overcast
10:56 AM 43.0 °F 35.4 °F 37.9 °F 82% 30.40 in 10.0 mi WNW 16.1 mph - N/A   Overcast
11:56 AM 45.0 °F 38.9 °F 39.0 °F 80% 30.41 in 10.0 mi WNW 12.7 mph - N/A   Overcast
12:56 PM 46.0 °F 40.2 °F 39.0 °F 76% 30.42 in 10.0 mi West 12.7 mph - N/A   Overcast
1:56 PM 48.0 °F - 39.9 °F 74% 30.42 in 10.0 mi NW 11.5 mph - N/A   Overcast
2:56 PM 48.9 °F - 39.9 °F 71% 30.40 in 10.0 mi WNW 10.4 mph - N/A   Overcast
3:56 PM 48.9 °F - 39.9 °F 71% 30.40 in 10.0 mi NW 11.5 mph - N/A   Overcast
4:56 PM 50.0 °F - 41.0 °F 71% 30.40 in 10.0 mi NW 9.2 mph - N/A   Overcast
5:56 PM 48.9 °F - 39.9 °F 71% 30.40 in 10.0 mi North 9.2 mph - N/A   Mostly Cloudy
6:56 PM 48.0 °F - 41.0 °F 77% 30.40 in 10.0 mi NNE 8.1 mph - N/A   Overcast
7:56 PM 46.0 °F 43.9 °F 39.9 °F 79% 30.41 in 10.0 mi NNE 4.6 mph - N/A   Mostly Cloudy
8:56 PM 44.1 °F 41.5 °F 39.9 °F 85% 30.43 in 10.0 mi NNE 4.6 mph - N/A   Overcast
9:56 PM 44.1 °F - 39.9 °F 85% 30.43 in 10.0 mi Calm Calm - N/A   Overcast
10:56 PM 45.0 °F 43.5 °F 41.0 °F 86% 30.45 in 10.0 mi ESE 3.5 mph - N/A   Overcast
11:56 PM 45.0 °F 42.6 °F 42.1 °F 90% 30.45 in 10.0 mi East 4.6 mph - N/A   Overcast